Flight Track Log - Related Links

Times and Time Zones

All times are in EDT time to prevent confusion due to time zone crossing. See the UCA834A flight status page for this flight to view local times or setup timezone preferences in your user account.

Time Position Orientation Groundspeed Altitude Reporting Facility
EDT Latitude Longitude Course Direction KTS MPH feet Rate Location/Type
09:34AM 40.6500 -74.1667 246° West 153 176 1,900  Level New York TRACON
09:35AM 40.6333 -74.2167 261° West 171 197 3,300 1,567 Climbing New York TRACON
09:37AM 40.6167 -74.3500 270° West 193 222 6,600 1,200 Climbing New York TRACON
09:38AM 40.6167 -74.4333 255° West 219 252 6,900 200 Climbing New York TRACON
09:39AM 40.6000 -74.5167 270° West 241 277 7,000 50 Climbing New York TRACON
09:40AM 40.6000 -74.6000 261° West 246 283 7,000 370 Level New York TRACON
09:42AM 40.5833 -74.7428 262° West 223 257 8,000 420 Climbing FAA TRACON SMA TRACON (SMA)
09:43AM 40.5772 -74.8006 262° West 228 262 8,000  Level FAA TRACON SMA TRACON (SMA)
09:44AM 40.5719 -74.8511 263° West 228 262 8,000  Level FAA TRACON SMA TRACON (SMA)
09:44AM 40.5664 -74.9089 262° West 233 268 8,000  Level FAA TRACON SMA TRACON (SMA)
09:45AM 40.5603 -74.9664 262° West 229 264 8,000  Level FAA TRACON SMA TRACON (SMA)
09:46AM 40.5547 -75.0169 261° West 229 264 8,000  Level FAA TRACON SMA TRACON (SMA)
09:46AM 40.5483 -75.0708 263° West 228 262 8,000 -75 Level FAA TRACON SMA TRACON (SMA)
09:47AM 40.5428 -75.1319 262° West 230 265 7,900 -444 Descending FAA TRACON SMA TRACON (SMA)
09:48AM 40.5372 -75.1842 262° West 236 272 7,400 -675 Descending FAA TRACON SMA TRACON (SMA)
09:48AM 40.5308 -75.2406 263° West 237 273 7,000 -300 Descending FAA TRACON SMA TRACON (SMA)
09:49AM 40.5247 -75.3022 244° Southwest 235 270 7,000  Level FAA TRACON SMA TRACON (SMA)
09:50AM 40.5061 -75.3528 198° South 240 276 7,000  Level FAA TRACON SMA TRACON (SMA)
09:50AM 40.4667 -75.3692 196° South 252 290 7,000  Level FAA TRACON SMA TRACON (SMA)
09:51AM 40.4169 -75.3883 195° South 255 293 7,000  Level FAA TRACON SMA TRACON (SMA)
09:52AM 40.3747 -75.4033 195° South 256 295 7,000  Level FAA TRACON SMA TRACON (SMA)
09:52AM 40.3272 -75.4200 192° South 256 295 7,000  Level FAA TRACON SMA TRACON (SMA)
09:53AM 40.2789 -75.4333 176° South 258 297 7,000  Level FAA TRACON SMA TRACON (SMA)
09:54AM 40.2278 -75.4289 176° South 271 312 7,000  Level FAA TRACON SMA TRACON (SMA)
09:54AM 40.1814 -75.4247 177° South 268 308 7,000 -525 Level FAA TRACON SMA TRACON (SMA)
09:55AM 40.1292 -75.4206 177° South 273 314 6,300 -750 Descending FAA TRACON SMA TRACON (SMA)
09:56AM 40.0739 -75.4169 177° South 283 326 6,000 -228 Descending FAA TRACON SMA TRACON (SMA)
09:56AM 40.0269 -75.4142 178° South 275 316 6,000  Level FAA TRACON SMA TRACON (SMA)
09:57AM 39.9753 -75.4119 194° South 270 311 6,000  Level FAA TRACON SMA TRACON (SMA)
09:58AM 39.9303 -75.4269 251° West 228 262 6,000 -228 Level FAA TRACON SMA TRACON (SMA)
09:58AM 39.9192 -75.4694 257° West 207 238 5,700 -911 Descending FAA TRACON SMA TRACON (SMA)
09:59AM 39.9094 -75.5250 257° West 214 246 4,800 -1,275 Descending FAA TRACON SMA TRACON (SMA)
10:00AM 39.9008 -75.5736 235° Southwest 200 230 4,000 -714 Descending FAA TRACON SMA TRACON (SMA)
10:00AM 39.8825 -75.6075 173° South 225 259 3,800 -741 Descending FAA TRACON SMA TRACON (SMA)
10:01AM 39.8431 -75.6008 141° Southeast 205 236 3,000 -623 Descending FAA TRACON SMA TRACON (SMA)
10:02AM 39.8142 -75.5700 98° East 187 215 3,000 -375 Level FAA TRACON SMA TRACON (SMA)
10:02AM 39.8092 -75.5217 71° East 210 242 2,500 -750 Descending FAA TRACON SMA TRACON (SMA)
10:03AM 39.8197 -75.4814 76° East 194 223 2,000 -375 Descending FAA TRACON SMA TRACON (SMA)
10:04AM 39.8286 -75.4356 75° East 188 216 2,000 -150 Level FAA TRACON SMA TRACON (SMA)
10:04AM 39.8381 -75.3892 76° East 192 221 1,800 -525 Descending FAA TRACON SMA TRACON (SMA)
10:05AM 39.8453 -75.3508 75° East 183 211 1,300 -825 Descending FAA TRACON SMA TRACON (SMA)
10:06AM 39.8525 -75.3164 75° East 126 145 700 -750 Descending FAA TRACON SMA TRACON (SMA)
10:06AM 39.8583 -75.2878 74° East 120 138 300 -375 Descending FAA TRACON SMA TRACON (SMA)
10:07AM 39.8597 -75.2814 74° East 119 137 200 -150 Descending FAA TRACON SMA TRACON (SMA)

Login

Don't have an account? Register now (free) for customized features, flight alerts, and more!